{"data":{"norad_id":55247,"intl_designator":"2022-144H","name":"LINUSS2","alt_names":[],"object_type":"PAYLOAD","status":"ACTIVE","operator":null,"country":"US","launch_date":"2022-11-01","launch_site_code":"AFETR","launch_vehicle":null,"mission":null,"orbit_class":"UNKNOWN","rcs_meters":null,"size_class":null,"mass_kg":null,"dimensions":null,"purposes":[],"wikipedia_slug":null,"has_3d_model":false,"image_url":null,"decayed_at":null,"tle_current":{"epoch":"2026-09-21T15:18:33.347808Z","epoch_age_seconds":69946,"freshness":"FRESH","line1":"1 55247U 22144H   26264.63788597 -.00000237  00000+0  00000+0 0  9990","line2":"2 55247   5.6115  63.3874 0005286 301.3205  31.6091  0.99054881 12668","mean_motion":0.99054881,"eccentricity":0.0005286,"inclination_deg":5.6115,"raan_deg":63.3874,"arg_perigee_deg":301.3205,"mean_anomaly_deg":31.6091,"bstar":0,"rev_number":1266,"period_min":1453.739568876,"perigee_km":36108.754618025,"apogee_km":36153.695515602,"semimajor_km":42509.362066813,"source":"CELESTRAK","updated_at":"2026-09-22T09:00:25.315713Z"}}}